Location: ???
(35.5616°N, 139.7977°E)
Time: 19:28:53
(UTC+00:00)

Hubble Space Telescope - Pass Details

Date: 17 November 2025
Orbit: 480 x 483 km, 28.5° (Epoch: 08 December)

Event Time Altitude Azimuth Distance (km) Brightness Sun altitude
Exits shadow 20:21:01 - 227° (SW) 2,298 3.7 -12.0°
Reaches altitude 10° 20:23:04 10° 211° (SSW) 1,645 3.1 -11.6°
Maximum altitude 20:25:45 19° 166° (SSE) 1,212 2.9 -11.1°
Drops below altitude 10° 20:28:26 10° 120° (ESE) 1,650 4.7 -10.5°
Sets 20:31:07 0° 102° (ESE) 2,531 6.5 -10.0°
